Effective Sunday, March 17, 2024, the National Weather Service National Data Buoy Center will discontinue its Dial-A-Buoy Interactive Voice Response system. For more information, see Service Change Notice 24-06 (PDF).

Station CMAN4 - 8536110 - Cape May, NJ Image indicating link to RSS feed of recent meteorological observations for station CMAN4


Conditions at CMAN4 as of
(10:18 am EST)
1518 GMT on 02/24/2024:
     

Click on the graph icon in the table below to see a time series plot of the last five days of that observation.

5-day plot - Wind Direction Wind Direction (WDIR): N ( 360 deg true )
5-day plot - Wind Speed Wind Speed (WSPD): 4.1 kts
5-day plot - Wind Gust Wind Gust (GST): 9.9 kts
5-day plot - Atmospheric Pressure Atmospheric Pressure (PRES):29.70 in
5-day plot - Air Temperature Air Temperature (ATMP): 39.4 °F
5-day plot - Water Temperature Water Temperature (WTMP): 44.6 °F
5-day plot - Wind Chill Wind Chill (CHILL): 36.0 °F
5-day plot - Wind Speed at 10 Meters Wind Speed at 10 meters (WSPD10M): 3.9 kts
5-day plot - Wind Speed at 20 Meters Wind Speed at 20 meters (WSPD20M): 3.9 kts
5-day plot -  Wind Speed, Wind Gust and Atmospheric Pressure Combined plot of Wind Speed, Gust, and Air Pressure
NOS Water Level Observation Network Water Level
Previous observations
TIME
(EST)
5-day plot - Wind Direction
WDIR
 
5-day plot - Wind Speed
WSPD
kts
5-day plot - Wind Gust
GST
kts
5-day plot - Wave Height
WVHT
ft
5-day plot - Dominant Wave Period
DPD
sec
5-day plot - Average Wave Period
APD
sec
5-day plot - Mean Wave Direction
MWD
 
5-day plot - Atmospheric Pressure
PRES
in
5-day plot - Pressure Tendency
PTDY
in
5-day plot - Air Temperature
ATMP
°F
5-day plot - Water Temperature
WTMP
°F
5-day plot - Dew Point
DEWP
°F
5-day plot - Salinity
SAL
psu
5-day plot - Visibility
VIS
nmi
5-day plot - Tide (above MLLW)
TIDE
ft
2024-02-24 10:12 am N 5.1 9.9----29.70- 39.6 44.6----
2024-02-24 10:06 am N 6.0 11.1----29.70- 39.4 44.6----
2024-02-24 10:00 am N 6.0 11.1------------
2024-02-24 09:54 am N 7.0 11.1------------
2024-02-24 09:48 am N 8.9 15.0----29.69-- 44.6----
2024-02-24 09:42 am N 8.9 15.0----29.69-- 44.6----
2024-02-24 09:36 am N 8.0 14.0----29.69-- 44.6----
2024-02-24 09:30 am N 7.0 15.0----29.69- 39.0 44.6----
2024-02-24 09:24 am N 7.0 15.0----29.69- 39.0 44.6----
2024-02-24 09:18 am N 8.9 13.0----29.69- 39.0 44.6----
2024-02-24 09:12 amNNW 9.9 18.1----29.69- 39.4 44.6----
2024-02-24 09:06 amNNW 11.1 15.9----29.68- 39.7 44.6----
2024-02-24 09:00 amNNW 13.0 15.9----29.68+0.11 40.1 44.6----
2024-02-24 08:54 amNNW 8.9 15.9----29.68- 40.3 44.6----
2024-02-24 08:48 amNNW 11.1 14.0------- 44.6----
2024-02-24 08:42 amNNW 12.0 15.9------- 44.6----
2024-02-24 08:36 amNNW 9.9 15.0------- 44.6----
2024-02-24 08:30 amNNW 9.9 15.9----29.68-------
2024-02-24 08:24 am NW 14.0 21.0----29.67-------
2024-02-24 08:18 amWNW 11.1 13.0----29.67-------
2024-02-24 08:12 am W 9.9 12.0----29.67-------
2024-02-24 08:06 am W 11.1 13.0----29.67-------
2024-02-24 08:00 am--------- 41.4 44.6----
2024-02-24 07:54 am--------- 41.4 44.6----
2024-02-24 07:48 am NW 5.1 7.0----29.63- 41.4 44.6----
2024-02-24 07:42 am NW 6.0 8.0----29.63- 41.4 44.6----
2024-02-24 07:36 am NW 4.1 6.0----29.62- 41.4 44.6----
2024-02-24 07:30 amNNW 2.9 7.0----29.61-------
2024-02-24 07:24 amNNW 4.1 6.0----29.61-------
2024-02-24 07:18 am N 4.1 8.0----29.60-- 44.6----
2024-02-24 07:12 am N 4.1 7.0----29.60-- 44.6----
2024-02-24 07:06 amNNW 2.9 6.0----29.60-- 44.6----
2024-02-24 07:00 am N 2.9 5.1----29.60+0.06 41.4 44.6----
2024-02-24 06:54 am N 1.9 5.1----29.59- 41.2 44.6----
2024-02-24 06:48 am N 2.9 6.0----29.59-- 44.6----
2024-02-24 06:42 am N 1.9 5.1----29.59-- 44.6----
2024-02-24 06:36 am N 1.9 5.1----29.59-- 44.6----
2024-02-24 06:30 amNNW 1.0 5.1----29.59- 40.8 44.6----
2024-02-24 06:24 am N 2.9 5.1----29.58- 40.8 44.6----
2024-02-24 06:18 am N 1.0 4.1----29.58- 40.8 44.6----
2024-02-24 06:12 am N 1.0 2.9----29.58- 41.0 44.6----
2024-02-24 06:06 am N 1.0 2.9----29.57- 41.0 44.6----
2024-02-24 06:00 am-------29.57-- 44.6----
2024-02-24 05:54 am-------29.57-- 44.6----
2024-02-24 05:48 am N 1.0 5.1----29.56- 41.2 44.6----
2024-02-24 05:42 am N 2.9 4.1----29.56- 41.4 44.6----
2024-02-24 05:36 am- 0.0 2.9----29.56- 41.5 44.4----
2024-02-24 05:30 am NW 1.9 2.9----29.56-- 44.4----
2024-02-24 05:24 am- 0.0 1.0----29.56-- 44.4----
2024-02-24 05:18 am-------29.55- 41.5 44.4----
2024-02-24 05:12 am-------29.55- 41.5 44.4----
2024-02-24 05:06 am-------29.55- 41.5 44.4----
2024-02-24 05:00 am-------29.55+0.03- 44.4----
2024-02-24 04:54 am-------29.55-- 44.4----
2024-02-24 04:48 am- 0.0 2.9----29.54-- 44.4----
2024-02-24 04:42 amWNW 1.9 7.0----29.54-- 44.4----
2024-02-24 04:36 amWNW 4.1 6.0----29.54-- 44.4----
2024-02-24 04:30 am- 0.0 1.9------------
2024-02-24 04:24 am- 0.0 2.9------------
2024-02-24 04:18 am W 1.0 6.0----29.54- 41.0 44.4----
2024-02-24 04:12 amWNW 4.1 7.0----29.54- 41.0 44.4----
2024-02-24 04:06 am W 4.1 6.0----29.54- 41.0 44.4----
2024-02-24 04:00 am W 4.1 5.1----29.53+0.01 41.0 44.4----
2024-02-24 03:54 am W 2.9 6.0----29.53- 40.8 44.4----
2024-02-24 03:48 am W 5.1 6.0----29.54- 40.8 44.4----
2024-02-24 03:42 am W 5.1 7.0----29.54- 40.8 44.4----
2024-02-24 03:36 am W 5.1 6.0----29.54- 40.8 44.4----
2024-02-24 03:30 am W 4.1 5.1----29.53-- 44.4----
2024-02-24 03:24 am W 4.1 6.0----29.53-- 44.4----
2024-02-24 03:18 am W 5.1 8.0----29.53-- 44.4----
2024-02-24 03:12 am W 6.0 8.9----29.53-- 44.4----
2024-02-24 03:06 am W 7.0 8.9----29.53-- 44.4----
2024-02-24 03:00 am W 6.0 8.0------- 44.4----
2024-02-24 02:54 am W 6.0 8.0------- 44.4----
2024-02-24 02:48 am W 6.0 8.9----29.52-- 44.6----
2024-02-24 02:42 am W 6.0 8.9----29.52-- 44.6----
2024-02-24 02:36 am W 7.0 8.0----29.53-- 44.6----
2024-02-24 02:30 am W 5.1 7.0----29.53-------
2024-02-24 02:24 am W 5.1 7.0----29.52-------
2024-02-24 02:18 amWNW 4.1 6.0----29.52- 41.2 44.8----
2024-02-24 02:12 amWNW 5.1 8.0----29.52- 41.2 44.8----
2024-02-24 02:06 amWNW 4.1 6.0----29.52- 41.2 44.8----
2024-02-24 02:00 am-------29.52+0.02 41.2 44.8----
2024-02-24 01:54 am-------29.53- 41.4 44.8----
2024-02-24 01:48 amWNW 2.9 6.0----29.52-- 44.8----
2024-02-24 01:42 amWNW 2.9 6.0----29.52-- 44.8----
2024-02-24 01:36 amWNW 1.9 5.1----29.52-- 44.8----
2024-02-24 01:30 am-------29.52- 41.2 44.8----
2024-02-24 01:24 am-------29.52- 41.4 44.8----
2024-02-24 01:18 amWNW 4.1 7.0----29.52-- 44.8----
2024-02-24 01:12 amWNW 4.1 7.0----29.52-- 44.8----
2024-02-24 01:06 amWNW 2.9 6.0----29.52-- 44.6----
2024-02-24 01:00 amWNW 2.9 6.0----29.52+0.01 41.2 44.8----
2024-02-24 12:54 amWNW 1.9 5.1----29.52- 41.2 44.8----
2024-02-24 12:48 amWNW 1.9 4.1----29.52-- 44.8----
2024-02-24 12:42 amWNW 1.9 4.1----29.52-- 44.8----
2024-02-24 12:36 amWNW 1.0 2.9----29.52-- 44.8----
2024-02-24 12:30 am- 0.0 2.9----29.51- 41.4 44.8----
2024-02-24 12:24 am- 0.0 2.9----29.51- 41.4 44.8----
2024-02-24 12:18 am- 0.0 2.9----29.51- 41.5 45.0----
2024-02-24 12:12 am- 0.0 2.9----29.51- 41.5 45.0----
2024-02-24 12:06 am- 0.0 5.1----29.51- 41.5 45.0----
2024-02-24 12:00 am NW 1.0 4.1----29.51+0.02- 45.0----
2024-02-23 11:54 pm- 0.0 4.1----29.51-- 45.0----
2024-02-23 11:48 pm- 0.0 2.9----29.51- 41.7 45.0----
2024-02-23 11:42 pmWNW 1.9 4.1----29.52- 41.7 45.0----
2024-02-23 11:36 pm NW 1.0 2.9----29.51- 41.9 45.0----
2024-02-23 11:30 pm N 1.0 5.1----29.51- 41.9 45.0----
2024-02-23 11:24 pm NW 1.0 4.1----29.51- 41.9 45.0----
2024-02-23 11:18 pm NW 1.9 5.1----29.51- 41.9 45.0----
2024-02-23 11:12 pm NW 1.9 5.1----29.51- 41.9 45.0----
2024-02-23 11:06 pm W 2.9 5.1----29.51- 41.9 45.0----
2024-02-23 11:00 pmWNW 1.9 6.0----29.50+0.02 41.9-----
2024-02-23 10:54 pmWNW 2.9 6.0----29.51- 41.9-----
2024-02-23 10:48 pm W 1.0 5.1----29.51-- 44.8----
2024-02-23 10:42 pmWNW 2.9 6.0----29.51-- 44.8----
2024-02-23 10:36 pm W 2.9 6.0----29.51-- 44.8----
2024-02-23 10:30 pmWNW 2.9 5.1----29.51- 41.9 44.8----
2024-02-23 10:24 pmWNW 1.9 5.1----29.51- 41.9 44.8----
2024-02-23 10:18 pm W 1.9 5.1----29.51- 41.9 44.8----
2024-02-23 10:12 pmWNW 1.9 4.1----29.51- 42.1 44.8----
2024-02-23 10:06 pmWNW 1.9 5.1----29.51- 42.1 45.0----
2024-02-23 10:00 pm NW 1.9 2.9----29.51+0.03 42.1 45.0----
2024-02-23 09:54 pm NW 1.0 2.9----29.51- 42.3 45.0----
2024-02-23 09:48 pm W 1.9 6.0----29.51- 42.3 45.0----
2024-02-23 09:42 pm W 2.9 5.1----29.52- 42.3 45.0----
2024-02-23 09:36 pm W 1.0 2.9----29.51- 42.4 45.0----
2024-02-23 09:30 pmENE 1.0 4.1----29.51- 42.4 45.0----
2024-02-23 09:24 pm- 0.0 2.9----29.50- 42.6 45.0----
2024-02-23 09:18 pmESE 1.0 2.9----29.50- 42.6 45.0----
2024-02-23 09:12 pm- 0.0 2.9----29.50- 42.8 45.1----
2024-02-23 09:06 pm- 0.0 2.9----29.49- 42.8 45.1----
2024-02-23 09:00 pmWNW 1.9 9.9----29.49+0.04 43.0 45.1----
2024-02-23 08:54 pm NW 7.0 9.9----29.49- 42.6 45.1----
2024-02-23 08:48 pm NW 8.9 12.0----29.50- 42.6 45.1----
2024-02-23 08:42 pmWNW 12.0 14.0----29.50- 42.6 45.1----
2024-02-23 08:36 pmWNW 9.9 12.0----29.50- 42.6 45.1----
2024-02-23 08:30 pm NW 8.9 11.1----29.49-------
2024-02-23 08:24 pmWNW 8.9 11.1----29.49-------
2024-02-23 08:18 pmWNW 8.9 9.9----29.50-- 45.1----
2024-02-23 08:12 pm NW 8.9 9.9----29.49-- 45.1----
2024-02-23 08:06 pm NW 8.0 9.9----29.49-- 45.1----
2024-02-23 08:00 pm NW 6.0 12.0----29.48+0.03- 45.1----
2024-02-23 07:54 pm NW 8.9 11.1----29.48-- 45.1----
2024-02-23 07:48 pm NW 8.9 11.1----29.48-- 45.1----
2024-02-23 07:42 pm NW 8.9 11.1----29.48-- 45.1----
2024-02-23 07:36 pmWNW 8.9 11.1----29.48-- 45.1----
2024-02-23 07:30 pmWNW 8.0 9.9----29.49-- 45.1----
2024-02-23 07:24 pm NW 6.0 7.0----29.48-- 45.1----
2024-02-23 07:18 pmWNW 6.0 8.9----29.48-- 45.1----
2024-02-23 07:12 pmWNW 7.0 8.9----29.48-- 45.1----
2024-02-23 07:06 pmWNW 8.0 8.9----29.48-- 45.1----
2024-02-23 07:00 pmWNW 7.0 8.9----29.48+0.04------
2024-02-23 06:54 pmWNW 7.0 8.9----29.48-------
2024-02-23 06:48 pmWNW 6.0 7.0----29.47- 42.6 45.1----
2024-02-23 06:42 pm NW 5.1 7.0----29.47- 42.8 45.1----
2024-02-23 06:36 pm NW 5.1 8.0----29.47- 43.0 45.1----
2024-02-23 06:30 pm NW 2.9 6.0----29.46- 43.2 45.1----
2024-02-23 06:24 pmNNW 5.1 8.0----29.46- 43.3 45.1----
2024-02-23 06:18 pmNNW 5.1 8.0----29.45-- 45.1----
2024-02-23 06:06 pm NW 7.0 8.0----29.46-- 45.1----
2024-02-23 06:00 pm- 0.0 1.9----29.46+0.01 43.2 45.1----
2024-02-23 05:54 pm- 0.0 1.9----29.46- 43.2 45.0----
2024-02-23 05:48 pm- 0.0 2.9----29.46- 43.2 45.0----
2024-02-23 05:42 pm- 0.0 1.9----29.46- 43.2 45.0----
2024-02-23 05:36 pm- 0.0 8.9----29.46- 43.2 45.0----
2024-02-23 05:30 pm NW 8.0 12.0----29.45- 43.0 45.0----
2024-02-23 05:24 pm NW 8.9 12.0----29.45- 42.8 45.0----
2024-02-23 05:18 pm NW 8.9 12.0----29.45- 42.8 45.0----
2024-02-23 05:12 pm NW 8.9 11.1----29.45- 42.8 45.0----
2024-02-23 05:06 pm NW 8.0 11.1----29.45- 42.8 45.0----
2024-02-23 05:00 pm NW 8.0 12.0----29.45+0.00 42.8 45.0----
2024-02-23 04:54 pmWNW 8.9 12.0----29.45- 42.6 44.8----
2024-02-23 04:48 pmWNW 9.9 12.0----29.45- 42.6 44.8----
2024-02-23 04:42 pmWNW 9.9 13.0----29.45- 42.6 44.8----
2024-02-23 04:36 pmWNW 9.9 13.0----29.45- 42.8 44.8----
2024-02-23 04:30 pmWNW 11.1 13.0----29.45- 42.8 44.8----
2024-02-23 04:24 pmWNW 9.9 12.0----29.44- 42.8 44.8----
2024-02-23 04:18 pmWNW 8.9 12.0----29.44- 42.8 44.8----
2024-02-23 04:12 pmWNW 8.9 13.0----29.44- 43.0 44.8----
2024-02-23 04:06 pmWNW 9.9 12.0----29.44- 43.0 44.8----
2024-02-23 04:00 pmWNW 9.9 12.0----29.44-0.02 43.0 44.8----
2024-02-23 03:54 pmWNW 8.0 11.1----29.44- 43.0 44.8----
2024-02-23 03:48 pm NW 8.0 9.9----29.44- 43.0 44.8----
2024-02-23 03:42 pm NW 6.0 8.0----29.44- 43.0 44.8----
2024-02-23 03:36 pm NW 7.0 8.9----29.44- 42.8 44.8----
2024-02-23 03:30 pmWNW 7.0 9.9----29.44- 42.8 44.6----
2024-02-23 03:24 pmWNW 7.0 8.9----29.44- 42.8 44.6----
2024-02-23 03:18 pmWNW 7.0 8.0----29.44- 42.8 44.6----
2024-02-23 03:12 pmWNW 6.0 8.9----29.44- 42.6 44.6----
2024-02-23 03:06 pmWNW 7.0 8.9----29.44- 42.6 44.6----
2024-02-23 03:00 pmWNW 7.0 8.9----29.44-0.04 42.6 44.6----
2024-02-23 02:54 pmWNW 6.0 8.0----29.44- 42.6 44.6----
2024-02-23 02:48 pmWNW 5.1 7.0----29.44- 42.6 44.6----
2024-02-23 02:42 pmWNW 5.1 7.0----29.44- 42.8 44.6----
2024-02-23 02:36 pmWNW 5.1 7.0----29.44- 42.8 44.6----
2024-02-23 02:30 pm- 0.0 4.1----29.45- 43.0 44.6----
2024-02-23 02:24 pmWNW 1.9 6.0----29.45- 43.0 44.6----
2024-02-23 02:18 pm W 1.0 5.1----29.45- 43.0 44.6----
2024-02-23 02:12 pmWNW 1.9 5.1----29.45- 43.0 44.6----
2024-02-23 02:06 pm- 0.0 6.0----29.45- 43.0 44.6----
2024-02-23 02:00 pm- 0.0 4.1----29.45-0.06 43.2 44.6----
2024-02-23 01:54 pm NW 1.0 5.1----29.45- 43.5 44.6----
2024-02-23 01:48 pmWNW 1.9 7.0----29.45- 43.7 44.6----
2024-02-23 01:42 pmWNW 6.0 7.0----29.45- 43.9 44.6----
2024-02-23 01:36 pm W 4.1 6.0----29.44- 44.4 44.6----
2024-02-23 01:30 pmWSW 1.9 1.9----29.44- 45.0 44.6----
2024-02-23 01:24 pm SW 1.9 1.9----29.45- 46.0 44.6----
2024-02-23 01:18 pm- 0.0 1.0----29.45- 46.2 44.6----
2024-02-23 01:12 pm SW 1.0 1.0----29.45- 46.0 44.6----
2024-02-23 01:06 pm SW 1.0 1.0----29.45- 45.9 44.6----
2024-02-23 01:00 pmWSW 1.0 1.9----29.46-0.07 46.0 44.6----
2024-02-23 12:54 pm W 1.9 1.9----29.46- 46.0 44.6----
2024-02-23 12:48 pm W 1.9 1.9----29.46- 46.6 44.6----
2024-02-23 12:42 pmWNW 1.0 1.9----29.46- 47.5 44.6----
2024-02-23 12:36 pmWNW 1.0 2.9----29.46- 47.8 44.6----
2024-02-23 12:30 pm NW 1.9 2.9----29.46- 47.7 44.6----
2024-02-23 12:24 pmNNW 1.9 2.9----29.47- 47.5 44.6----
2024-02-23 12:18 pmWNW 1.0 1.9----29.47- 47.3 44.6----
2024-02-23 12:12 pm- 0.0 1.9----29.47- 47.1 44.6----
2024-02-23 12:06 pmWNW 1.9 2.9----29.48- 47.3 44.6----
2024-02-23 12:00 pmWNW 2.9 2.9----29.48-0.05 46.6 44.6----
2024-02-23 11:54 am W 1.9 1.9----29.48- 47.3 44.6----
2024-02-23 11:48 amWNW 2.9 4.1----29.48- 47.8 44.6----
2024-02-23 11:42 amWNW 1.9 2.9----29.48- 47.8 44.6----
2024-02-23 11:36 amWNW 1.9 2.9----29.49- 48.0 44.6----
2024-02-23 11:30 amWNW 1.9 2.9----29.49- 47.7 44.6----
2024-02-23 11:24 am SW 1.0 2.9----29.50- 47.5 44.6----
2024-02-23 11:18 amWSW 1.9 1.9----29.50- 47.7 44.6----
2024-02-23 11:12 am W 1.9 2.9----29.50- 47.8 44.6----
2024-02-23 11:06 am W 1.9 2.9----29.51- 47.7 44.6----
2024-02-23 11:00 am- 0.0 1.9----29.51-0.03 47.7 44.6----
2024-02-23 10:54 am- 0.0 1.0----29.51- 47.7 44.8----
2024-02-23 10:48 amWSW 1.0 1.9----29.51- 47.7 44.8----
2024-02-23 10:42 amWNW 1.9 1.9----29.51- 47.8 44.8----
2024-02-23 10:36 am- 0.0 1.0----29.51- 47.7 44.6----
2024-02-23 10:30 amSSW 1.0 1.0----29.52- 47.5 44.8----
2024-02-23 10:24 am SE 1.0 1.9----29.52- 47.3 44.6----
2024-02-23 10:18 am S 1.0 2.9----29.52- 47.3 44.6----
2024-02-23 10:12 am S 1.9 2.9----29.53- 47.1 44.6----
2024-02-23 10:06 amSSE 1.0 1.9----29.53- 46.6 44.6----
2024-02-23 10:00 amESE 1.9 1.9----29.53+0.00 45.9 44.6----
2024-02-23 09:54 am- 0.0 1.0----29.53- 45.7 44.6----